Location: Équennes
(49.7375°N, 1.9622°E)
Time: 22:13:27
(UTC+00:00)

Cosmos 1726 Rocket - Pass Details

Date: 28 January 2023
Orbit: 602 x 627 km, 82.5° (Epoch: 29 March)

Event Time Altitude Azimuth Distance (km) Brightness Sun altitude
Rises 19:01:35 0° 350° (N) 2,873 7.1 -22.8°
Reaches altitude 10° 19:03:49 10° 351° (N) 1,963 6.2 -23.1°
Enters shadow 19:07:29 63° 4° (N) 680 3.6 -23.7°
